Flag for Belarus Weather past 2 weeks in Minsk, Belarus

Now
48 °F

Clear.


Feels Like: 44 °F
Forecast: 38 / 56 °F
Wind: 10 mph from Northeast

Location: Minsk


UV Index: 3 (Moderate)

Visibility: 10 mi


Pressure: 30.21 "Hg

Humidity: 50%

Dew point: 30 °F

Location of MinskLocation

Historic Weather in Minsk

°F

Minsk temperature yesterday

Maximum temperature yesterday: 70 °F (at 1:30 PM)
Minimum temperature yesterday: 41 °F (at 4:30 AM)
Average temperature yesterday: 55 °F

Past Weeks' High & Low Weather Summary

 TemperatureHumidityPressure
High73 °F (Apr 21, 3:00 PM)100% (Apr 9, 4:00 AM)30.33 "Hg (Apr 9, 4:00 AM)
Low27 °F (Apr 11, 2:00 AM)23% (Apr 21, 3:00 PM)29.56 "Hg (Apr 15, 3:00 AM)
Average47 °F73%30.01 "Hg
* Reported Apr 9 1:00 AM — Apr 24 1:30 AM, Minsk, Weather by CustomWeather, © 2014

Note: Actual official high and low records may vary slightly from our data, if they occured in-between our weather recording intervals... More about our weather records

Advertising

Historic Weather Conditions — Data for Previous 24 hours

 ConditionsComfort  
Time TempWeatherWind HumidityBarometerVisibility
1:30 AM
Apr 24
48 °FClear.10 mph50%30.21 "Hg10 mi
1:00 AM50 °FClear.13 mph47%30.21 "Hg10 mi
12:30 AM52 °FClear.10 mph44%30.21 "Hg10 mi
12:00 AM52 °FClear.13 mph47%30.18 "Hg10 mi
11:30 PM
Apr 23
54 °FClear.13 mph44%30.18 "Hg10 mi
11:00 PM55 °FClear.10 mph44%30.18 "Hg10 mi
10:30 PM55 °FClear.8 mph51%30.15 "Hg10 mi
10:00 PM57 °FClear.6 mph51%30.15 "Hg10 mi
9:30 PM57 °FClear.6 mph51%30.12 "Hg10 mi
9:00 PM59 °FSunny.6 mph45%30.09 "Hg10 mi
8:30 PM63 °FSunny.8 mph39%30.09 "Hg10 mi
8:00 PM64 °FSunny.10 mph34%30.07 "Hg10 mi
7:30 PM66 °FSunny.10 mph30%30.07 "Hg10 mi
7:00 PM66 °FSunny.13 mph30%30.07 "Hg10 mi
6:30 PM68 °FSunny.13 mph26%30.07 "Hg10 mi
6:00 PM68 °FSunny.13 mph26%30.07 "Hg10 mi
5:30 PM70 °FSunny.13 mph27%30.04 "Hg10 mi
5:00 PM70 °FPassing clouds.13 mph31%30.04 "HgN/A
4:30 PM70 °FSunny.15 mph31%30.04 "Hg10 mi
4:00 PM70 °FSunny.15 mph31%30.04 "Hg10 mi
3:30 PM70 °FSunny.15 mph31%30.07 "Hg10 mi
3:00 PM70 °FSunny.10 mph33%30.07 "Hg10 mi
2:30 PM70 °FSunny.13 mph31%30.07 "Hg10 mi
1:30 PM70 °FSunny.10 mph31%30.07 "Hg10 mi
1:00 PM68 °FSunny.10 mph30%30.07 "Hg10 mi
12:30 PM66 °FSunny.8 mph37%30.07 "Hg10 mi
12:00 PM64 °FSunny.8 mph46%30.07 "Hg10 mi
11:30 AM63 °FSunny.6 mph56%30.07 "Hg10 mi
11:00 AM63 °FSunny.6 mph59%30.07 "Hg10 mi
10:30 AM64 °FSunny.3 mph52%30.07 "Hg10 mi
10:00 AM61 °FSunny.3 mph63%30.04 "Hg10 mi
9:30 AM59 °FPassing clouds.3 mph72%30.04 "HgN/A
9:00 AM55 °FSunny.3 mph82%30.04 "Hg10 mi
8:30 AM54 °FSunny.3 mph88%30.04 "Hg10 mi
8:00 AM52 °FClear.3 mph94%30.04 "Hg5 mi
7:30 AM48 °FClear.1 mph100%30.04 "Hg4 mi
7:00 AM46 °FFog.3 mph93%30.04 "Hg3 mi
6:49 AM43 °FFog.3 mph100%30.01 "Hg3 mi
6:30 AM43 °FClear.3 mph100%30.01 "Hg4 mi
6:00 AM41 °FFog.1 mph100%30.01 "Hg3 mi
5:50 AM41 °FFog.1 mph100%30.01 "Hg2 mi
5:30 AM41 °FFog.No wind100%30.01 "Hg1 mi
5:00 AM41 °FFog.1 mph100%30.01 "Hg2 mi
4:51 AM41 °FFog.1 mph100%30.01 "Hg2 mi
4:30 AM41 °FFog.No wind100%30.01 "Hg1 mi
4:00 AM43 °FFog.1 mph93%30.01 "Hg0 mi
3:51 AM43 °FFog.No wind93%29.98 "Hg1 mi
3:30 AM43 °FFog.No wind93%29.98 "Hg2 mi
3:00 AM43 °FFog.No wind100%29.98 "Hg0 mi
2:30 AM45 °FFog.No wind93%29.98 "Hg2 mi
2:00 AM45 °FFog.No wind93%29.98 "Hg3 mi
Weather by CustomWeather, © 2014

See weather overview